This is the latest recevied weather packets stored in our database for station/object KQ7A. If no packets are shown the sender has not sent any weather packets the latest 10 day(s).
| Time | Temp. | Humidity | Pressure | Rain* | Wind** | Luminosity | Snow |
|---|---|---|---|---|---|---|---|
| 1788575808 | 16.11° C | 47% | 1015.6 hPa | 0 mm | - | 0 W/m² | - |
| 1788575503 | 16.67° C | 41% | 1015.5 hPa | 0 mm | - | 0 W/m² | - |
| 1788575202 | 16.67° C | 46% | 1015.5 hPa | 0 mm | - | 1 W/m² | - |
| 1788574898 | 16.67° C | 44% | 1015.4 hPa | 0 mm | - | 3 W/m² | - |
| 1788574597 | 16.67° C | 45% | 1015.6 hPa | 0 mm | - | 6 W/m² | - |
| 1788574303 | 16.67° C | 46% | 1015.4 hPa | 0 mm | - | 7 W/m² | - |
| 1788573993 | 16.67° C | 44% | 1015.5 hPa | 0 mm | - | 11 W/m² | - |
| 1788573688 | 16.67° C | 45% | 1015.4 hPa | 0 mm | - | 14 W/m² | - |
| 1788573381 | 16.67° C | 44% | 1015.5 hPa | 0 mm | - | 18 W/m² | - |
| 1788573075 | 16.67° C | 45% | 1015.4 hPa | 0 mm | - | 21 W/m² | - |
| 1788572770 | 16.67° C | 45% | 1015.5 hPa | 0 mm | - | 25 W/m² | - |
| 1788572466 | 17.22° C | 43% | 1015.6 hPa | 0 mm | - | 27 W/m² | - |
| 1788572162 | 17.22° C | 43% | 1015.8 hPa | 0 mm | - | 29 W/m² | - |
| 1788571858 | 17.22° C | 43% | 1015.6 hPa | 0 mm | - | 34 W/m² | - |
| 1788571556 | 17.22° C | 43% | 1015.8 hPa | 0 mm | - | 33 W/m² | - |
| 1788571254 | 17.78° C | 43% | 1015.5 hPa | 0 mm | - | 39 W/m² | - |
| 1788570949 | 17.78° C | 43% | 1015.6 hPa | 0 mm | - | 43 W/m² | - |
| 1788570644 | 17.78° C | 43% | 1015.9 hPa | 0 mm | - | 51 W/m² | - |
| 1788570339 | 17.78° C | 43% | 1015.6 hPa | 0 mm | - | 50 W/m² | - |
| 1788570036 | 17.78° C | 43% | 1015.6 hPa | 0 mm | - | 70 W/m² | - |
| 1788569731 | 17.78° C | 43% | 1015.4 hPa | 0 mm | - | 66 W/m² | - |
| 1788569426 | 17.78° C | 43% | 1015.6 hPa | 0 mm | - | 67 W/m² | - |
| 1788569121 | 17.78° C | 42% | 1015.6 hPa | 0 mm | - | 65 W/m² | - |
| 1788568816 | 17.78° C | 42% | 1015.5 hPa | 0 mm | - | 84 W/m² | - |
| 1788568512 | 17.78° C | 42% | 1015.4 hPa | 0 mm | - | 81 W/m² | - |
* Rain latest hour (hover to see other rain measurements)
** Current wind speed in m/s (hover to see current wind gust speed)